Weather observations for the past three days for
Cold Bay, Cold Bay Airport
Imperial (Metric)
Date Time (akdt) Wind (mph) Vis. (mi.) Weather Sky Cond. Temperature (ºF) Relative Humidity Wind Chill (°F) Heat Index (°F) Pressure Precipitation (in)
Air Dwpt 6 hour altimeter (in) sea level (mb) 1 hr 3 hr 6 hr
Max. Min.
14 15:53 W 30 G 41 10.00 Overcast and Windy OVC012 48 43 48.9 46 83% 40 29.79 1008.9
14 14:53 W 29 G 40 10.00 Overcast and Windy OVC012 48.9 44.1 83% 41 29.8 1009.0
14 13:53 W 21 10.00 Overcast and Breezy BKN010 OVC060 48 44.1 86% 41 29.8 1009.0
14 12:53 W 23 10.00 Overcast and Breezy OVC010 46.9 44.1 90% 40 29.79 1008.8
14 11:53 W 26 G 35 9.00 Overcast and Windy OVC009 46 43 89% 38 29.78 1008.6
14 10:53 W 29 G 43 10.00 Overcast and Windy OVC008 46 43 89% 37 29.77 1008.2
14 09:53 W 24 G 37 10.00 Overcast and Breezy OVC010 46.9 44.1 46.9 46 90% 39 29.75 1007.5
14 08:53 W 28 G 35 10.00 Overcast and Windy OVC009 46 44.1 93% 38 29.74 1007.1
14 07:53 W 28 G 44 10.00 Overcast and Windy OVC008 46 44.1 93% 38 29.73 1006.7
14 06:53 W 32 G 45 10.00 Overcast and Windy OVC007 46 44.1 93% 37 29.72 1006.4
14 05:53 W 32 G 43 10.00 Light Rain and Windy OVC006 46 44.1 93% 37 29.73 1006.6
14 04:53 W 30 G 43 7.00 Light Rain and Windy OVC007 46 45 96% 37 29.73 1006.7
14 03:53 W 35 G 47 7.00 Overcast and Windy OVC007 46.9 45 46.9 46 93% 38 29.73 1006.8 0.02
14 02:53 W 30 G 43 3.00 Light Rain Fog/Mist and Windy BKN006 OVC011 46 45 96% 37 29.73 1006.7 0.01
14 01:53 W 32 G 48 5.00 Light Rain Fog/Mist and Windy OVC008 46.9 44.1 90% 38 29.72 1006.5
14 00:53 W 30 G 40 4.00 Light Rain Fog/Mist and Windy BKN007 OVC011 46 44.1 93% 37 29.71 1006.2 0.01 0.01
13 23:53 W 29 G 38 8.00 Light Rain and Windy OVC010 46 44.1 93% 37 29.71 1006.1
13 22:53 W 30 G 45 4.00 Light Rain Fog/Mist and Windy BKN010 OVC013 46 44.1 93% 37 29.71 1006.2
13 21:53 W 31 G 45 9.00 Overcast and Windy OVC010 46.9 43 52 46.9 86% 38 29.72 1006.3
13 20:53 W 30 G 43 10.00 Overcast and Windy BKN009 OVC013 46.9 43 86% 38 29.72 1006.4
13 19:53 W 29 G 41 10.00 Overcast and Windy OVC012 48.9 43 80% 41 29.71 1006.2
13 18:53 W 26 G 39 10.00 Overcast and Windy OVC012 48.9 42.1 77% 42 29.72 1006.4
13 17:53 W 26 G 37 10.00 Overcast and Windy SCT015 OVC034 50 42.1 74% 43 29.73 1006.9
13 16:53 W 24 G 36 10.00 Overcast and Breezy SCT019 OVC042 51.1 41 69% 29.72 1006.5
13 15:53 W 30 G 40 10.00 Overcast and Windy SCT018 BKN025 OVC042 50 41 52 44.1 71% 43 29.72 1006.3 0.01
13 14:53 W 28 G 38 10.00 Overcast and Windy SCT016 OVC042 51.1 42.1 71% 29.71 1005.9
13 13:53 W 24 G 35 10.00 Overcast and Breezy OVC016 48.9 42.1 77% 42 29.7 1005.7
13 12:53 W 18 G 30 10.00 Overcast BKN022 BKN030 OVC043 48.9 41 74% 43 29.69 1005.5 0.01
13 11:53 W 18 10.00 Overcast SCT014 BKN030 OVC042 46.9 42.1 83% 40 29.69 1005.5
13 10:53 W 17 10.00 Overcast SCT012 BKN020 OVC034 46.9 42.1 83% 41 29.69 1005.4 0.01
13 09:53 W 20 7.00 Light Rain SCT013 BKN022 BKN026 45 42.1 46 43 90% 38 29.68 1004.9
13 07:53 NW 12 10.00 Overcast BKN016 OVC022 44.1 41 89% 39 29.65 1004.2
13 06:53 W 14 7.00 Overcast OVC010 44.1 42.1 93% 38 29.65 1003.9
13 05:53 NW 8 9.00 Overcast FEW008 BKN016 OVC020 45 43 93% 41 29.63 1003.3
13 04:53 W 8 10.00 Overcast BKN010 OVC014 45 43 93% 41 29.63 1003.2
13 03:53 NW 5 10.00 Light Rain BKN010 BKN030 OVC055 45 44.1 46.9 45 97% 43 29.64 1003.6 0.01 0.04
13 02:53 NW 3 8.00 Light Rain FEW008 BKN055 OVC070 45 44.1 97% 29.64 1003.8 0.03
13 01:53 NW 8 10.00 Overcast OVC009 45 43 93% 41 29.66 1004.3
13 00:53 NW 7 10.00 Overcast BKN008 OVC110 46 44.1 93% 43 29.66 1004.4
12 23:53 NW 5 10.00 Mostly Cloudy BKN007 BKN019 46 44.1 93% 44 29.66 1004.4
12 22:53 NW 8 10.00 Overcast FEW004 BKN008 OVC023 46.9 45 93% 44 29.67 1004.8
12 21:53 NW 8 10.00 Overcast OVC007 46.9 45 50 46.9 93% 44 29.67 1004.7
12 20:53 W 13 10.00 Mostly Cloudy BKN010 BKN013 48 44.1 86% 43 29.67 1004.8
12 19:53 W 10 10.00 Overcast BKN010 OVC015 48.9 45 86% 45 29.68 1005.0
12 18:53 W 14 10.00 Overcast OVC012 48.9 44.1 83% 44 29.67 1004.8
12 17:53 W 16 9.00 Overcast OVC009 48.9 45 86% 44 29.68 1004.9
12 16:53 W 16 10.00 Overcast BKN009 OVC013 50 45 83% 45 29.67 1004.6
12 15:53 W 17 9.00 Overcast OVC009 48.9 46 51.1 46.9 90% 43 29.65 1004.0
12 14:53 W 20 4.00 Light Rain Fog/Mist OVC006 48 46 93% 42 29.64 1003.6
12 13:53 W 21 10.00 Overcast and Breezy OVC007 51.1 46 83% 29.61 1002.8
12 12:53 W 22 10.00 Overcast and Breezy OVC007 50 46.9 89% 44 29.59 1002.0
12 11:53 W 22 10.00 Overcast and Breezy BKN005 OVC014 48.9 46.9 93% 42 29.57 1001.2
12 10:53 W 22 G 30 7.00 Overcast and Breezy OVC004 48.9 46.9 93% 42 29.54 1000.3
12 09:53 W 18 6.00 Light Rain Fog/Mist BKN007 OVC012 48 46 48.9 48 93% 42 29.52 999.7 0.02
12 08:53 W 14 3.00 Light Rain Fog/Mist BKN004 BKN008 OVC013 48.9 46.9 93% 44 29.5 999.0 0.01
12 07:53 S 6 8.00 Overcast OVC013 48.9 48.9 100% 47 29.48 998.1
12 06:53 S 12 4.00 Light Rain Fog/Mist OVC016 48.9 48 97% 45 29.47 997.8 0.01 0.01
12 05:53 S 15 10.00 Overcast FEW004 OVC023 48.9 48 97% 44 29.45 997.2
12 04:53 SE 18 G 31 9.00 Overcast SCT004 OVC026 48.9 48 97% 43 29.43 996.6
12 03:53 SE 23 G 31 10.00 Overcast and Breezy OVC003 48.9 48 50 48.9 97% 42 29.44 997.0 0.24
12 02:53 SE 24 G 33 5.00 Fog/Mist and Breezy BKN003 OVC039 48.9 48 97% 42 29.44 997.0
12 01:53 SE 25 G 38 5.00 Light Rain Fog/Mist and Breezy BKN004 OVC029 48.9 48 97% 42 29.44 996.9
12 00:53 SE 30 G 41 6.00 Light Rain Fog/Mist and Windy OVC043 48.9 48 97% 41 29.44 997.1 0.03 0.24
11 23:53 SE 29 G 43 6.00 Light Rain Fog/Mist and Windy OVC049 48.9 48 97% 41 29.46 997.5 0.11
11 22:53 SE 35 G 49 3.00 Rain Fog/Mist and Windy FEW005 SCT038 OVC055 48.9 48 97% 41 29.47 998.1 0.1
11 21:53 SE 37 G 55 4.00 Light Rain Fog/Mist and Windy FEW015 FEW037 OVC055 50 48 50 48 93% 42 29.47 998.0 0.06 0.27
11 20:53 SE 38 G 54 3.00 Light Rain Fog/Mist and Windy BKN012 OVC017 48.9 48 97% 40 29.46 997.6 0.01
11 19:53 SE 40 G 58 3.00 Light Rain Fog/Mist and Windy BKN019 BKN030 OVC070 48.9 48 97% 40 29.47 998.1 0.01
11 18:53 SE 38 G 56 3.00 Light Rain Fog/Mist and Windy FEW010 OVC014 48.9 46.9 93% 40 29.51 999.4 0.04 0.19
11 17:53 SE 31 G 46 2.50 Light Rain Fog/Mist and Windy BKN008 BKN014 OVC019 48.9 46.9 93% 41 29.57 1001.4 0.07
11 16:53 SE 30 G 47 2.50 Light Rain Fog/Mist and Windy SCT012 BKN017 OVC022 48.9 46.9 93% 41 29.61 1002.7 0.08
Date Time (akdt) Wind (mph) Vis. (mi.) Weather Sky Cond. Air Dwpt Max. Min. Relative Humidity Wind Chill (°F) Heat Index (°F) altimeter (in) sea level (mb) 1 hr 3 hr 6 hr
6 hour
Temperature (ºF) Pressure Precipitation (in)